This demonstration page uses our WeatherBlox Daily Observations layout. Learn more.

Hourly Observations for December 7, 2016

Temp ( °F °C ) Dew Point ( °F °C ) Humidity (%) Winds ( mph kmh ) Pressure ( in mb ) Visibility ( mi km ) Precip ( " mm )
12:15 am 00:15 Cloudy 22 -5.3 9 -12.6 57 57 NNE 5 7 30.27 1025 10 16.0934 0 0
12:35 am 00:35 Cloudy 22 -5.3 8 -13.2 54 54 NNE 8 13 30.27 1025 10 16.0934 0 0
12:55 am 00:55 Cloudy 22 -5.5 8 -13.6 53 53 NNE 8 13 30.3 1026 10 16.0934 0 0
1:15 am 01:15 Cloudy 22 -5.6 7 -14 52 52 NNE 9 15 30.3 1026 10 16.0934 0 0
1:35 am 01:35 Mostly Cloudy 21 -6 6 -14.2 53 53 NNE 10 17 30.27 1025 10 16.0934 0 0
1:55 am 01:55 Partly Cloudy 21 -6.2 7 -14.1 54 54 NNE 12 19 30.3 1026 10 16.0934 0 0
2:15 am 02:15 Cloudy 20 -6.4 7 -13.8 56 56 NNE 14 22 30.3 1026 10 16.0934 0 0
2:35 am 02:35 Cloudy 20 -6.9 6 -14.2 56 56 N 14 22 30.3 1026 10 16.0934 0 0
2:55 am 02:55 Cloudy 19 -7.2 6 -14.6 56 56 N 14 22 30.3 1026 10 16.0934 0 0
3:15 am 03:15 Cloudy 18 -7.8 5 -14.9 57 57 NNE 14 22 30.3 1026 10 16.0934 0 0
3:35 am 03:35 Cloudy 18 -8 5 -15 58 58 N 17 28 30.3 1026 10 16.0934 0 0
3:55 am 03:55 Cloudy 17 -8.2 5 -15.1 58 58 N 10 17 30.3 1026 10 16.0934 0 0
4:15 am 04:15 Cloudy 17 -8.4 4 -15.7 56 56 N 12 19 30.36 1028 10 16.0934 0 0
4:35 am 04:35 Cloudy 17 -8.3 4 -15.5 56 56 N 12 19 30.36 1028 10 16.0934 0 0
4:55 am 04:55 Cloudy 17 -8.5 4 -15.7 56 56 N 15 24 30.36 1028 10 16.0934 0 0
5:15 am 05:15 Cloudy with Light Snow 16 -8.9 5 -14.9 62 62 N 15 24 30.39 1029 3 4.82802 0 0
5:35 am 05:35 Cloudy with Light Snow 16 -9.1 8 -13.4 71 71 N 9 15 30.39 1029 2.5 4.02335 0 0
5:55 am 05:55 Cloudy with Light Snow 15 -9.5 10 -12.5 79 79 N 7 11 30.39 1029 2 3.21868 0 0
6:15 am 06:15 Cloudy with Light Snow 15 -9.7 10 -12.5 80 80 N 12 19 30.39 1029 3 4.82802 0 0
6:35 am 06:35 Cloudy with Light Snow 15 -9.7 10 -12.3 82 82 N 12 19 30.39 1029 4 6.43736 0 0
6:55 am 06:55 Cloudy with Light Snow 15 -9.7 10 -12.5 80 80 N 10 17 30.39 1029 7 11.26538 0 0
7:15 am 07:15 Cloudy 15 -9.7 10 -12.5 80 80 N 9 15 30.39 1029 7 11.26538 0 0
7:35 am 07:35 Cloudy with Light Snow 15 -9.6 9 -12.7 78 78 N 7 11 30.42 1030 10 16.0934 0 0
7:55 am 07:55 Cloudy 15 -9.6 9 -12.9 77 77 N 8 13 30.42 1030 7 11.26538 0 0
8:15 am 08:15 Cloudy 15 -9.5 7 -13.7 72 72 N 9 15 30.45 1031 7 11.26538 0 0
8:35 am 08:35 Cloudy 15 -9.3 6 -14.5 66 66 N 12 19 30.45 1031 10 16.0934 0 0
8:55 am 08:55 Cloudy with Light Snow 15 -9.5 7 -14 70 70 N 10 17 30.48 1032 3 4.82802 0 0
9:15 am 09:15 Cloudy with Light Snow 15 -9.5 8 -13.3 74 74 NNW 8 13 30.48 1032 2 3.21868 0 0
9:35 am 09:35 Cloudy with Light Snow 15 -9.3 8 -13.2 74 74 N 10 17 30.48 1032 3 4.82802 0 0
9:55 am 09:55 Cloudy with Light Snow 16 -9 8 -13.5 70 70 NNW 9 15 30.48 1032 4 6.43736 0 0
10:15 am 10:15 Cloudy with Light Snow 16 -9 9 -12.6 75 75 N 12 19 30.5 1033 2 3.21868 0 0
10:35 am 10:35 Cloudy with Light Snow 15 -9.2 10 -12.3 78 78 N 10 17 30.5 1033 2 3.21868 0 0
10:55 am 10:55 Cloudy with Light Snow 16 -9 10 -12.3 77 77 N 12 19 30.5 1033 2.5 4.02335 0 0
11:15 am 11:15 Cloudy with Light Snow 17 -8.6 10 -12.4 74 74 NNW 13 20 30.5 1033 3 4.82802 0 0
11:35 am 11:35 Cloudy with Haze 17 -8.3 9 -13 69 69 NNW 15 24 30.5 1033 5 8.0467 0 0
11:55 am 11:55 Cloudy 19 -7.5 7 -13.9 61 61 NNW 13 20 30.5 1033 10 16.0934 0 0
12:15 pm 12:15 Cloudy 19 -7.4 6 -14.4 58 58 NNW 10 17 30.5 1033 10 16.0934 0 0
12:35 pm 12:35 Cloudy 21 -6 9 -13 58 58 NNW 8 13 30.48 1032 10 16.0934 0 0
12:55 pm 12:55 Cloudy 20 -6.7 8 -13.2 60 60 NNW 10 17 30.5 1033 10 16.0934 0 0
1:15 pm 13:15 Cloudy 21 -6.3 8 -13.4 58 58 NNW 8 13 30.45 1031 10 16.0934 0 0
1:35 pm 13:35 Cloudy 21 -6 9 -12.8 59 59 NNW 12 19 30.45 1031 10 16.0934 0 0
1:55 pm 13:55 Partly Cloudy 21 -5.9 9 -12.7 59 59 NNW 12 19 30.45 1031 10 16.0934 0 0
2:15 pm 14:15 Partly Cloudy 22 -5.5 10 -12 61 61 NNW 10 17 30.48 1032 10 16.0934 0 0
2:35 pm 14:35 Mostly Cloudy 22 -5.5 10 -12.2 60 60 NW 8 13 30.48 1032 10 16.0934 0 0
2:55 pm 14:55 Mostly Cloudy 23 -5.2 7 -14 50 50 NNW 10 17 30.48 1032 10 16.0934 0 0
3:15 pm 15:15 Partly Cloudy 23 -5 5 -15 46 46 NW 12 19 30.48 1032 10 16.0934 0 0
3:35 pm 15:35 Partly Cloudy 23 -5 4 -15.4 44 44 NNW 10 17 30.48 1032 10 16.0934 0 0
3:55 pm 15:55 Partly Cloudy 22 -5.3 3 -16 43 43 NNW 13 20 30.48 1032 10 16.0934 0 0
4:15 pm 16:15 Sunny 22 -5.5 3 -15.9 44 44 NNW 10 17 30.5 1033 10 16.0934 0 0
4:35 pm 16:35 Sunny 22 -5.8 3 -15.9 45 45 NNW 10 17 30.5 1033 10 16.0934 0 0
4:55 pm 16:55 Sunny 20 -6.6 4 -15.5 50 50 NNW 7 11 30.53 1034 10 16.0934 0 0
5:15 pm 17:15 Clear 19 -7.5 4 -15.6 53 53 NNW 8 13 30.53 1034 10 16.0934 0 0
5:35 pm 17:35 Partly Cloudy 18 -7.8 4 -15.5 54 54 NW 7 11 30.56 1035 10 16.0934 0 0
5:55 pm 17:55 Partly Cloudy 16 -8.7 5 -14.8 62 62 NW 8 13 30.56 1035 10 16.0934 0 0
6:15 pm 18:15 Clear 16 -8.7 5 -15.2 60 60 NNW 8 13 30.56 1035 10 16.0934 0 0
6:35 pm 18:35 Partly Cloudy 15 -9.7 4 -15.4 63 63 NW 7 11 30.62 1037 10 16.0934 0 0
6:55 pm 18:55 Partly Cloudy 13 -10.8 3 -16 66 66 WNW 6 9 30.62 1037 10 16.0934 0 0
7:15 pm 19:15 Clear 12 -10.9 3 -16.1 66 66 NW 6 9 30.62 1037 10 16.0934 0 0
7:35 pm 19:35 Clear 10 -12 2 -16.5 69 69 WNW 6 9 30.68 1039 10 16.0934 0 0
7:55 pm 19:55 Clear 10 -12 2 -16.4 70 70 WNW 7 11 30.68 1039 10 16.0934 0 0
8:15 pm 20:15 Clear 10 -12.3 2 -16.8 69 69 NW 9 15 30.68 1039 10 16.0934 0 0
8:35 pm 20:35 Clear 9 -12.7 2 -16.6 73 73 NW 8 13 30.68 1039 10 16.0934 0 0
8:55 pm 20:55 Clear 10 -12.5 2 -16.5 72 72 NW 8 13 30.71 1040 10 16.0934 0 0
9:15 pm 21:15 Clear 10 -12.5 2 -16.5 72 72 NW 7 11 30.71 1040 10 16.0934 0 0
9:35 pm 21:35 Clear 10 -12.2 3 -16.3 72 72 WNW 7 11 30.71 1040 10 16.0934 0 0
9:55 pm 21:55 Clear 9 -12.6 2 -16.6 72 72 NW 8 13 30.71 1040 10 16.0934 0 0
10:15 pm 22:15 Clear 9 -12.7 2 -16.8 72 72 NW 9 15 30.71 1040 10 16.0934 0 0
10:35 pm 22:35 Clear 10 -12.1 2 -16.7 69 69 WNW 7 11 30.71 1040 10 16.0934 0 0
10:55 pm 22:55 Clear 9 -13 1 -17.2 71 71 WNW 7 11 30.71 1040 10 16.0934 0 0
11:15 pm 23:15 Clear 8 -13.5 1 -17.5 72 72 WNW 9 15 30.71 1040 10 16.0934 0 0
11:35 pm 23:35 Clear 6 -14.2 0 -17.8 74 74 NW 9 15 30.74 1041 10 16.0934 0 0
11:55 pm 23:55 Clear 10 -12.1 3 -16.2 72 72 NW 15 24 30.71 1040 10 16.0934 0 0

Powered by AerisWeather